Location: Observatoire
(46.1952°N, 5.3391°E)
Time: 01:49:03
(UTC+01:00)

Explorer 7 - Pass Details

Date: 21 February 2026
Orbit: 430 x 541 km, 50.2° (Epoch: 10 March)

Event Time Altitude Azimuth Distance (km) Brightness Sun altitude
Rises 17:49:31 0° 287° (WNW) 2,466 11.2 3.1°
Reaches altitude 10° 17:51:41 10° 293° (WNW) 1,611 10.1 2.7°
Maximum altitude 17:55:12 47° 9° (N) 640 7.1 2.2°
Drops below altitude 10° 17:58:52 10° 84° (E) 1,675 8.7 1.6°
Sets 18:01:09 0° 91° (E) 2,578 9.6 1.2°
